Date,TemperatureHighF,TemperatureAvgF,TemperatureLowF,DewpointHighF,DewpointAvgF,DewpointLowF,HumidityHigh,HumidityAvg,HumidityLow,PressureMaxIn,PressureMinIn,WindSpeedMaxMPH,WindSpeedAvgMPH,GustSpeedMaxMPH,PrecipitationSumIn
2013-3-1,33,30,28,30,27,25,92,87,80,29.74,29.57,4,2,9,0.00
2013-3-2,32,27,23,26,24,20,92,87,74,29.76,29.71,5,2,11,0.04
2013-3-3,30,25,22,26,21,18,90,86,82,29.73,29.65,5,2,9,0.02
2013-3-4,25,22,20,20,18,17,92,83,75,29.88,29.67,6,4,10,0.00
2013-3-5,38,29,23,30,25,19,91,82,70,30.13,29.88,5,2,9,0.00
2013-3-6,38,33,30,29,26,22,91,75,58,30.24,30.12,5,2,11,0.00
2013-3-7,35,31,28,24,22,20,76,71,64,30.23,30.15,4,2,11,0.00
2013-3-8,42,32,27,24,23,22,82,69,49,30.32,30.14,5,3,13,0.00
2013-3-9,48,35,24,24,23,20,85,64,36,30.36,30.28,4,2,8,0.00
2013-3-10,48,34,19,28,23,16,88,66,39,30.39,30.20,8,3,12,0.00
2013-3-11,45,40,32,32,30,28,84,66,53,30.23,30.01,9,4,15,0.00
2013-3-12,45,42,36,44,39,32,96,90,67,30.03,29.72,9,4,15,1.13
2013-3-13,39,35,27,34,30,24,93,82,61,29.81,29.73,5,2,8,0.00
2013-3-14,29,23,13,25,16,5,92,74,59,29.89,29.70,8,4,17,0.00
2013-3-15,30,20,11,25,12,5,90,71,42,29.90,29.62,8,2,8,0.02
2013-3-16,25,20,9,20,13,5,96,74,53,29.94,29.72,5,2,9,0.02
2013-3-17,21,10,2,11,3,-2,87,73,41,30.39,29.93,8,2,12,0.00
2013-3-18,31,13,-4,16,1,-8,84,62,30,30.50,30.21,5,1,7,0.00
2013-3-19,28,25,22,24,20,8,93,83,45,30.21,29.76,8,3,10,0.53
2013-3-20,30,24,21,23,20,17,98,84,67,29.75,29.65,7,3,15,0.07
2013-3-21,34,22,7,18,13,4,91,70,39,29.75,29.64,6,2,10,0.00
2013-3-22,32,21,6,23,15,3,87,77,56,29.75,29.66,6,2,8,0.00
2013-3-23,31,28,23,25,22,19,95,81,70,29.78,29.61,11,5,17,0.01
2013-3-24,36,30,20,25,23,16,87,76,62,29.87,29.77,5,2,11,0.00
2013-3-25,44,30,10,29,20,7,90,70,47,29.84,29.61,7,1,13,0.00
2013-3-26,43,34,28,26,24,22,82,69,46,29.80,29.64,5,2,10,0.00
2013-3-27,41,34,23,32,27,20,92,76,60,29.93,29.77,5,2,13,0.01
2013-3-28,45,38,33,34,32,31,92,80,61,30.04,29.92,5,2,8,0.00
2013-3-29,46,39,33,36,32,29,94,78,53,30.07,30.00,6,2,8,0.01
2013-3-30,46,36,25,32,22,13,93,63,28,30.12,30.05,6,2,10,0.00
2013-3-31,50,36,19,36,22,16,92,60,32,30.12,29.78,10,4,15,0.01